Location: Unspecified
(0.0000°N, 0.0000°E)
Time: 06:34:50
(UTC+00:00)

Vanguard 3 - Pass Details

Date: 26 November 2019
Orbit: 508 x 3263 km, 33.3° (Epoch: 11 December)

Event Time Altitude Azimuth Distance (km) Brightness Sun altitude
Rises 17:01:46 0° 317° (NW) 7,194 12.3 10.6°
Reaches altitude 10° 17:08:02 10° 327° (NNW) 6,013 11.8 9.2°
Maximum altitude 17:22:39 30° 21° (NNE) 3,763 10.2 5.8°
Drops below altitude 10° 17:32:47 10° 77° (ENE) 4,184 10.2 3.4°
Sets 17:36:07 0° 88° (E) 4,800 10.5 2.6°
